Orbital elements: 2010 JH87 Earth MOID = 0.2144 AU Epoch 2010 July 23.0 TT = JDT 2455400.5 MPC M 352.09380 (2000.0) P Q n 0.58377966 Peri. 224.59021 +0.75821504 +0.20907918 a 1.4178711 Node 113.15250 -0.22557536 +0.97281550 e 0.4970955 Incl. 42.19590 -0.61173991 -0.09957865 P 1.69 H 19.9 G 0.15 U...
Orbital elements: 2010 JG87 Earth MOID = 0.2065 AU Epoch 2010 July 23.0 TT = JDT 2455400.5 MPC M 25.81361 (2000.0) P Q n 0.22518043 Peri. 266.84543 -0.39295052 -0.90984633 a 2.6757711 Node 207.52074 +0.91579825 -0.37411126 e 0.9437561 Incl. 16.76757 +0.08308700 -0.17950049 P 4.38 H 19.0 G 0.15 U 9...
Siljan, in Dalarna in central Sweden, is Sweden's sixth largest lake. The cumulative area of Siljan and the adjacent, smaller lakes Orsasjön and Insjön is 354 km². Siljan reaches a maximum depth of 120 m, and its surface is situated 161 metres above sea level. The largest city bordered by its shore is...
Researchers Send Bacteria Into Orbit Aboard Space Shuttle Atlantis A team of researchers from Rensselaer will send an army of microorganisms into space next week, to investigate new ways of preventing the formation and spread of biofilms, or clusters of bacteria, that could pose a threat to the he...
Visitors to an historic house and gardens will soon be seeing stars after plans were approved for an astronomical observatory. But if youre concerned that the new building will overshadow the delights of Dyffryn Gardens, have no fear. The proposal is for a structure that looks like a glorified gard...
A possible supernova in the galaxy 2MFGC 15924 Date of Discovery: 8th May, 2010 Brightness: 16.4 Mag Position(2000): RA = 21:01:44.10, Dec = -14:38:30.5 Transient SSS100508:210144-143830
VIVIKAI DV-668T The Digital Video Camcorder with Telescope lets you can capture the video and photo in a convenience and ease ways. It built-in 32MB memory, together with an SD(HC) memory card slot. With the telescope accessory, you can easily zoom to focus the distant objects clearly and make a hig...
Mathematicians Solve 140-Year-Old Boltzmann Equation Two University of Pennsylvania mathematicians have found solutions to a 140-year-old, 7-dimensional equation that were not known to exist for more than a century despite its widespread use in modelling the behaviour of gases. The study, p...
Orbital elements: 2010 JG80 Earth MOID = 0.1148 AU Epoch 2010 July 23.0 TT = JDT 2455400.5 MPC M 48.16696 (2000.0) P Q n 0.62311128 Peri. 359.13889 -0.72517387 +0.62302463 a 1.3575598 Node 224.29705 -0.62921053 -0.77253544 e 0.1727763 Incl. 24.82337 -0.27967297 +0.12259410 P 1.58 H 24.0 G 0.15 U 8...
Vienna's Natural History Museum to have a new chief[url=http://austriantimes.at/news/Panorama/2010-05-14/23363/Vienna%92s_Natural_History_Museum_to_have_a_new_chief]Read
Three days of torrential monsoon rain triggered floods across much of India during the first week of August 2006. The floods displaced more than half a million people and killed at least 80 in southern India’s Andhra Pradesh state.
This image was taken by the Terra satellite on August 7th, 2...
The received wisdom that ivy destroys buildings has been overturned by a new study by Oxford University. In a three-year project, Oxford researchers analysed the effects of ivy growing on buildings in five different parts of England and discovered that the plant plays a protective role. They foun...
The 190 - 420 metre wide asteroid 2008 JP will make a close pass (54.7 lunar distances, 0.1404 AU), travelling at 22.69 km/second, to the Earth-Moon system on the 14th May, 2010. See more The Lunar Distance (LD), the distanc...
Orbital elements: 2010 JR34 Earth MOID = 0.0038 AU Epoch 2010 July 23.0 TT = JDT 2455400.5 MPC M 327.45078 (2000.0) P Q n 1.04860907 Peri. 316.29730 +0.99285312 +0.11910304 a 0.9595339 Node 36.86435 -0.10573985 +0.90728930 e 0.1448469 Incl. 0.72201 -0.05533325 +0.40328722 P 0.94 H 27.7 G 0.15 U 7 [...